THA910 EKCH-EGLL

Flight info

Callsign THA910
Flight time 1h 30m
Altitude 40000
Route LANGO DCT RAXLU DCT JUIST DCT ABNED L980 LOGAN
Aircraft A359/H-SDE2E3GHIJ3J4J5LM1ORWXY/LB1D1

Departure

Time 2026-04-26 14:32
Airport Copenhagen Kastrup Airport (EKCH)

Arrival

Time 2026-04-26 16:03
Airport London Heathrow Airport (EGLL)
Time Latitude Longitude Altitude Speed Heading
2026-04-26 14:12 55.62508 12.65056 30 ft 0 kts 268°
2026-04-26 14:23 55.62508 12.65071 30 ft 3 kts 268°
2026-04-26 14:23 55.62509 12.65108 30 ft 3 kts 268°
2026-04-26 14:24 55.62512 12.65143 29 ft 3 kts 236°
2026-04-26 14:24 55.62526 12.65170 28 ft 3 kts 208°
2026-04-26 14:24 55.62542 12.65179 29 ft 0 kts 178°
2026-04-26 14:25 55.62529 12.65180 27 ft 5 kts 177°
2026-04-26 14:26 55.62474 12.65188 26 ft 10 kts 171°
2026-04-26 14:26 55.62390 12.65201 30 ft 14 kts 176°
2026-04-26 14:26 55.62288 12.65200 30 ft 14 kts 184°
2026-04-26 14:26 55.62199 12.65166 30 ft 14 kts 206°
2026-04-26 14:27 55.62140 12.65099 30 ft 9 kts 213°
2026-04-26 14:27 55.62118 12.65072 30 ft 2 kts 213°
2026-04-26 14:27 55.62099 12.65049 30 ft 5 kts 213°
2026-04-26 14:27 55.62055 12.64998 30 ft 10 kts 213°
2026-04-26 14:28 55.61989 12.64921 30 ft 13 kts 212°
2026-04-26 14:28 55.61900 12.64821 30 ft 16 kts 213°
2026-04-26 14:28 55.61804 12.64711 30 ft 17 kts 213°
2026-04-26 14:28 55.61701 12.64591 30 ft 19 kts 213°
2026-04-26 14:29 55.61585 12.64459 30 ft 21 kts 213°
2026-04-26 14:29 55.61459 12.64313 30 ft 23 kts 213°
2026-04-26 14:29 55.61324 12.64161 30 ft 24 kts 213°
2026-04-26 14:29 55.61187 12.64002 30 ft 24 kts 213°
2026-04-26 14:30 55.61040 12.63833 30 ft 26 kts 213°
2026-04-26 14:30 55.60885 12.63655 30 ft 27 kts 213°
2026-04-26 14:30 55.60742 12.63491 30 ft 22 kts 212°
2026-04-26 14:30 55.60613 12.63323 30 ft 22 kts 221°
2026-04-26 14:31 55.60512 12.63172 30 ft 17 kts 221°
2026-04-26 14:31 55.60412 12.63153 30 ft 16 kts 142°
2026-04-26 14:31 55.60348 12.63318 32 ft 16 kts 90°
2026-04-26 14:31 55.60420 12.63472 30 ft 19 kts 41°
2026-04-26 14:32 55.60617 12.63776 31 ft 72 kts 41°
2026-04-26 14:32 55.61179 12.64646 30 ft 140 kts 41°
2026-04-26 14:32 55.62027 12.65974 364 ft 168 kts 33°
2026-04-26 14:32 55.62883 12.67275 1338 ft 155 kts 36°
2026-04-26 14:33 55.63689 12.68531 2079 ft 162 kts 35°
2026-04-26 14:33 55.64615 12.69946 2387 ft 191 kts 36°
2026-04-26 14:33 55.65706 12.71606 2640 ft 224 kts 36°
2026-04-26 14:33 55.66799 12.73810 3144 ft 251 kts 56°
2026-04-26 14:34 55.67471 12.76729 3977 ft 261 kts 70°
2026-04-26 14:34 55.67688 12.79978 4785 ft 272 kts 94°
2026-04-26 14:34 55.67000 12.83101 5636 ft 279 kts 128°
2026-04-26 14:34 55.65460 12.85139 6575 ft 279 kts 162°
2026-04-26 14:35 55.63566 12.85450 7443 ft 276 kts 194°
2026-04-26 14:35 55.61670 12.84647 8279 ft 283 kts 201°
2026-04-26 14:35 55.59789 12.83500 9158 ft 288 kts 205°
2026-04-26 14:35 55.57927 12.82176 10036 ft 295 kts 208°
2026-04-26 14:36 55.55990 12.80694 10740 ft 308 kts 209°
2026-04-26 14:36 55.54033 12.78958 11091 ft 328 kts 218°
2026-04-26 14:36 55.52378 12.76171 11627 ft 331 kts 241°
2026-04-26 14:36 55.51483 12.72497 12435 ft 325 kts 264°
2026-04-26 14:37 55.51225 12.68550 13342 ft 325 kts 271°
2026-04-26 14:37 55.51080 12.64537 14215 ft 329 kts 271°
2026-04-26 14:37 55.50938 12.60479 14998 ft 332 kts 271°
2026-04-26 14:37 55.50789 12.56387 15827 ft 335 kts 271°
2026-04-26 14:38 55.50636 12.52271 16627 ft 338 kts 271°
2026-04-26 14:38 55.50479 12.48119 17434 ft 341 kts 271°
2026-04-26 14:38 55.50317 12.43925 18270 ft 344 kts 271°
2026-04-26 14:38 55.50153 12.39694 19040 ft 347 kts 271°
2026-04-26 14:39 55.49986 12.35422 19755 ft 351 kts 270°
2026-04-26 14:39 55.49812 12.31095 20475 ft 355 kts 270°
2026-04-26 14:39 55.49471 12.26802 21168 ft 363 kts 262°
2026-04-26 14:39 55.48632 12.22533 21886 ft 374 kts 250°
2026-04-26 14:40 55.47252 12.18570 22612 ft 384 kts 240°
2026-04-26 14:40 55.45635 12.14778 23340 ft 389 kts 238°
2026-04-26 14:40 55.43980 12.10972 24009 ft 392 kts 238°
2026-04-26 14:40 55.42320 12.07137 24593 ft 395 kts 238°
2026-04-26 14:41 55.40651 12.03270 25192 ft 398 kts 238°
2026-04-26 14:41 55.38970 11.99369 25811 ft 401 kts 238°
2026-04-26 14:41 55.37282 11.95453 26431 ft 403 kts 238°
2026-04-26 14:41 55.35580 11.91506 26999 ft 406 kts 238°
2026-04-26 14:42 55.33866 11.87536 27604 ft 409 kts 238°
2026-04-26 14:42 55.32139 11.83540 28179 ft 412 kts 238°
2026-04-26 14:42 55.30401 11.79524 28747 ft 415 kts 238°
2026-04-26 14:42 55.28643 11.75470 29306 ft 418 kts 238°
2026-04-26 14:43 55.26877 11.71403 29846 ft 421 kts 238°
2026-04-26 14:43 55.25094 11.67303 30352 ft 424 kts 237°
2026-04-26 14:43 55.23401 11.63075 30780 ft 424 kts 242°
2026-04-26 14:43 55.21846 11.58737 31190 ft 427 kts 242°
2026-04-26 14:44 55.20262 11.54320 31601 ft 430 kts 242°
2026-04-26 14:44 55.18649 11.49884 32014 ft 433 kts 242°
2026-04-26 14:44 55.17017 11.45441 32410 ft 436 kts 242°
2026-04-26 14:44 55.15363 11.40965 32810 ft 438 kts 241°
2026-04-26 14:45 55.13698 11.36479 33179 ft 441 kts 241°
2026-04-26 14:45 55.12589 11.33499 33437 ft 443 kts 241°
2026-04-26 14:45 55.10329 11.27443 33900 ft 446 kts 241°
2026-04-26 14:45 55.08624 11.22886 34231 ft 449 kts 241°
2026-04-26 14:46 55.06909 11.18312 34513 ft 451 kts 241°
2026-04-26 14:46 55.05185 11.13722 34748 ft 454 kts 241°
2026-04-26 14:46 55.03456 11.09127 35101 ft 454 kts 240°
2026-04-26 14:46 55.01718 11.04521 35462 ft 454 kts 240°
2026-04-26 14:47 54.99982 10.99927 35803 ft 454 kts 240°
2026-04-26 14:47 54.98262 10.95383 36134 ft 455 kts 240°
2026-04-26 14:47 54.96497 10.90728 36453 ft 455 kts 240°
2026-04-26 14:47 54.94774 10.86192 36783 ft 455 kts 240°
2026-04-26 14:48 54.93018 10.81595 37096 ft 456 kts 240°
2026-04-26 14:48 54.91243 10.77037 37405 ft 456 kts 240°
2026-04-26 14:48 54.89448 10.72479 37741 ft 456 kts 239°
2026-04-26 14:48 54.87653 10.67938 38045 ft 456 kts 239°
2026-04-26 14:49 54.85865 10.63418 38351 ft 456 kts 239°
2026-04-26 14:49 54.84064 10.58862 38640 ft 456 kts 239°
2026-04-26 14:49 54.82338 10.54257 38933 ft 455 kts 242°
2026-04-26 14:49 54.80668 10.49600 39159 ft 455 kts 242°
2026-04-26 14:50 54.79022 10.44910 39353 ft 455 kts 243°
2026-04-26 14:50 54.77388 10.40204 39562 ft 455 kts 243°
2026-04-26 14:50 54.75756 10.35498 39741 ft 456 kts 243°
2026-04-26 14:50 54.74121 10.30790 39940 ft 457 kts 243°
2026-04-26 14:51 54.72479 10.26079 40128 ft 457 kts 242°
2026-04-26 14:51 54.70831 10.21368 40283 ft 459 kts 242°
2026-04-26 14:51 54.69175 10.16651 40309 ft 463 kts 242°
2026-04-26 14:52 54.65795 10.07061 40308 ft 471 kts 242°
2026-04-26 14:52 54.62354 9.97354 40309 ft 475 kts 242°
2026-04-26 14:53 54.58896 9.87638 40313 ft 475 kts 242°
2026-04-26 14:53 54.55453 9.78003 40313 ft 475 kts 242°
2026-04-26 14:54 54.51982 9.68325 40315 ft 475 kts 241°
2026-04-26 14:54 54.48502 9.58659 40309 ft 475 kts 241°
2026-04-26 14:55 54.45013 9.49003 40307 ft 475 kts 241°
2026-04-26 14:55 54.41517 9.39367 40318 ft 475 kts 241°
2026-04-26 14:56 54.38012 9.29739 40319 ft 475 kts 241°
2026-04-26 14:56 54.34500 9.20130 40317 ft 476 kts 241°
2026-04-26 14:57 54.30995 9.10576 40318 ft 476 kts 241°
2026-04-26 14:57 54.27460 9.00977 40316 ft 476 kts 240°
2026-04-26 14:58 54.23914 8.91390 40321 ft 476 kts 240°
2026-04-26 14:58 54.20361 8.81820 40324 ft 477 kts 240°
2026-04-26 14:59 54.16802 8.72270 40321 ft 477 kts 240°
2026-04-26 14:59 54.13232 8.62730 40326 ft 477 kts 240°
2026-04-26 15:00 54.09651 8.53199 40324 ft 477 kts 240°
2026-04-26 15:00 54.06061 8.43679 40325 ft 478 kts 240°
2026-04-26 15:01 54.02481 8.34217 40327 ft 478 kts 240°
2026-04-26 15:01 53.98871 8.24715 40337 ft 478 kts 240°
2026-04-26 15:02 53.95252 8.15224 40336 ft 479 kts 240°
2026-04-26 15:02 53.91625 8.05746 40340 ft 479 kts 240°
2026-04-26 15:03 53.87988 7.96284 40344 ft 479 kts 240°
2026-04-26 15:03 53.84336 7.86814 40346 ft 479 kts 240°
2026-04-26 15:04 53.80702 7.77425 40348 ft 480 kts 240°
2026-04-26 15:04 53.77034 7.67988 40346 ft 480 kts 240°
2026-04-26 15:05 53.73358 7.58563 40345 ft 480 kts 239°
2026-04-26 15:05 53.69678 7.49154 40346 ft 480 kts 239°
2026-04-26 15:06 53.66612 7.41340 40344 ft 480 kts 239°
2026-04-26 15:06 53.62916 7.31958 40344 ft 480 kts 239°
2026-04-26 15:07 53.57349 7.17912 40345 ft 480 kts 239°
2026-04-26 15:07 53.53634 7.08574 40343 ft 481 kts 239°
2026-04-26 15:08 53.49911 6.99233 40346 ft 481 kts 239°
2026-04-26 15:08 53.46204 6.89979 40348 ft 481 kts 239°
2026-04-26 15:09 53.42464 6.80684 40345 ft 481 kts 239°
2026-04-26 15:09 53.38714 6.71398 40343 ft 481 kts 239°
2026-04-26 15:10 53.35588 6.63685 40345 ft 481 kts 239°
2026-04-26 15:10 53.31189 6.52871 40344 ft 481 kts 239°
2026-04-26 15:11 53.27415 6.43627 40344 ft 481 kts 239°
2026-04-26 15:11 53.23638 6.34413 40345 ft 481 kts 239°
2026-04-26 15:12 53.19847 6.25197 40346 ft 481 kts 239°
2026-04-26 15:12 53.16054 6.16009 40343 ft 481 kts 239°
2026-04-26 15:13 53.12253 6.06836 40344 ft 481 kts 239°
2026-04-26 15:13 53.08443 5.97674 40344 ft 481 kts 238°
2026-04-26 15:14 53.04630 5.88539 40345 ft 481 kts 238°
2026-04-26 15:14 53.00811 5.79422 40342 ft 481 kts 238°
2026-04-26 15:15 52.96985 5.70319 40343 ft 481 kts 238°
2026-04-26 15:15 52.93150 5.61230 40339 ft 481 kts 238°
2026-04-26 15:16 52.89308 5.52155 40330 ft 481 kts 238°
2026-04-26 15:16 52.85464 5.43108 40328 ft 481 kts 238°
2026-04-26 15:17 52.82261 5.35594 40340 ft 481 kts 238°
2026-04-26 15:17 52.77748 5.25044 40341 ft 480 kts 238°
2026-04-26 15:18 52.73886 5.16051 40334 ft 480 kts 238°
2026-04-26 15:18 52.70015 5.07067 40335 ft 480 kts 238°
2026-04-26 15:19 52.66136 4.98099 40326 ft 480 kts 238°
2026-04-26 15:19 52.62258 4.89164 40319 ft 480 kts 238°
2026-04-26 15:20 52.58363 4.80220 40316 ft 480 kts 237°
2026-04-26 15:20 52.54496 4.71374 40315 ft 480 kts 237°
2026-04-26 15:21 52.50577 4.62436 40314 ft 480 kts 237°
2026-04-26 15:21 52.46690 4.53605 40316 ft 480 kts 237°
2026-04-26 15:22 52.42750 4.44684 40318 ft 480 kts 237°
2026-04-26 15:22 52.38833 4.35844 40317 ft 480 kts 237°
2026-04-26 15:23 52.34930 4.27069 40316 ft 480 kts 237°
2026-04-26 15:23 52.31003 4.18268 40322 ft 479 kts 237°
2026-04-26 15:24 52.27064 4.09472 40325 ft 479 kts 237°
2026-04-26 15:24 52.23122 4.00700 40324 ft 479 kts 237°
2026-04-26 15:25 52.19815 3.93362 40327 ft 479 kts 237°
2026-04-26 15:25 52.15220 3.83202 40331 ft 479 kts 237°
2026-04-26 15:26 52.11260 3.74479 40331 ft 479 kts 236°
2026-04-26 15:26 52.07290 3.65763 40332 ft 479 kts 236°
2026-04-26 15:27 52.03318 3.57071 40332 ft 479 kts 236°
2026-04-26 15:27 51.99340 3.48396 40334 ft 479 kts 236°
2026-04-26 15:28 51.95358 3.39743 40335 ft 479 kts 236°
2026-04-26 15:28 51.91367 3.31098 40327 ft 479 kts 236°
2026-04-26 15:29 51.87464 3.22397 40339 ft 477 kts 241°
2026-04-26 15:29 51.84840 3.12659 40334 ft 470 kts 257°
2026-04-26 15:30 51.83732 3.02347 40315 ft 468 kts 265°
2026-04-26 15:30 51.83139 2.91876 40325 ft 468 kts 266°
2026-04-26 15:31 51.82350 2.78090 40323 ft 468 kts 265°
2026-04-26 15:32 51.81426 2.64164 40322 ft 468 kts 265°
2026-04-26 15:32 51.80575 2.51951 40319 ft 468 kts 265°
2026-04-26 15:33 51.79837 2.41518 40164 ft 461 kts 265°
2026-04-26 15:33 51.79478 2.36479 39830 ft 454 kts 265°
2026-04-26 15:33 51.79112 2.31369 39366 ft 451 kts 265°
2026-04-26 15:34 51.78756 2.26410 38841 ft 448 kts 265°
2026-04-26 15:34 51.78396 2.21423 38182 ft 447 kts 265°
2026-04-26 15:34 51.78081 2.16443 37521 ft 445 kts 266°
2026-04-26 15:34 51.77802 2.11464 36843 ft 445 kts 266°
2026-04-26 15:35 51.77521 2.06503 36164 ft 444 kts 266°
2026-04-26 15:35 51.77232 2.01539 35489 ft 444 kts 266°
2026-04-26 15:35 51.76939 1.96575 34829 ft 443 kts 266°
2026-04-26 15:35 51.76643 1.91647 34255 ft 440 kts 266°
2026-04-26 15:36 51.76347 1.86751 33638 ft 437 kts 265°
2026-04-26 15:36 51.76050 1.81882 33006 ft 434 kts 265°
2026-04-26 15:36 51.75753 1.77046 32399 ft 432 kts 265°
2026-04-26 15:36 51.75455 1.72234 31821 ft 429 kts 265°
2026-04-26 15:37 51.75157 1.67462 31269 ft 426 kts 265°
2026-04-26 15:37 51.74859 1.62717 30710 ft 424 kts 264°
2026-04-26 15:37 51.74562 1.57995 30126 ft 421 kts 264°
2026-04-26 15:37 51.74263 1.53309 29494 ft 419 kts 264°
2026-04-26 15:38 51.73962 1.48633 28884 ft 417 kts 264°
2026-04-26 15:38 51.73663 1.44000 28298 ft 414 kts 264°
2026-04-26 15:38 51.73363 1.39393 27717 ft 412 kts 264°
2026-04-26 15:38 51.73064 1.34812 27160 ft 409 kts 264°
2026-04-26 15:39 51.72765 1.30258 26618 ft 407 kts 264°
2026-04-26 15:39 51.72466 1.25733 26102 ft 404 kts 264°
2026-04-26 15:39 51.72167 1.21239 25582 ft 402 kts 264°
2026-04-26 15:39 51.71969 1.18280 25234 ft 400 kts 264°
2026-04-26 15:40 51.71569 1.12325 24547 ft 398 kts 264°
2026-04-26 15:40 51.71270 1.07906 24058 ft 395 kts 264°
2026-04-26 15:40 51.70980 1.03633 23496 ft 393 kts 264°
2026-04-26 15:40 51.70677 0.99203 22899 ft 391 kts 263°
2026-04-26 15:41 51.70379 0.94867 22344 ft 388 kts 263°
2026-04-26 15:41 51.70082 0.90564 21792 ft 385 kts 263°
2026-04-26 15:41 51.69785 0.86292 21250 ft 382 kts 263°
2026-04-26 15:41 51.69488 0.82049 20719 ft 380 kts 263°
2026-04-26 15:42 51.69191 0.77830 20191 ft 377 kts 263°
2026-04-26 15:42 51.68896 0.73649 19687 ft 374 kts 263°
2026-04-26 15:42 51.68601 0.69495 19193 ft 372 kts 263°
2026-04-26 15:42 51.68308 0.65363 18704 ft 369 kts 263°
2026-04-26 15:43 51.68015 0.61268 18165 ft 367 kts 263°
2026-04-26 15:43 51.67725 0.57252 17648 ft 364 kts 262°
2026-04-26 15:43 51.67146 0.49325 17066 ft 346 kts 262°
2026-04-26 15:44 51.66871 0.45540 16889 ft 335 kts 263°
2026-04-26 15:44 51.66341 0.38314 16569 ft 314 kts 262°
2026-04-26 15:44 51.66088 0.34859 16308 ft 308 kts 263°
2026-04-26 15:45 51.65815 0.28181 15982 ft 289 kts 266°
2026-04-26 15:45 51.65712 0.25068 15867 ft 280 kts 266°
2026-04-26 15:46 51.65516 0.19021 15490 ft 269 kts 266°
2026-04-26 15:46 51.65419 0.16018 15229 ft 266 kts 266°
2026-04-26 15:46 51.65323 0.13055 14938 ft 265 kts 266°
2026-04-26 15:46 51.65290 0.12053 14856 ft 264 kts 266°
2026-04-26 15:47 51.65126 0.07160 14391 ft 262 kts 266°
2026-04-26 15:47 51.64925 0.01333 13709 ft 257 kts 266°
2026-04-26 15:47 51.64827 -0.01504 13140 ft 256 kts 266°
2026-04-26 15:48 51.64726 -0.04371 12572 ft 256 kts 266°
2026-04-26 15:48 51.64623 -0.07210 12034 ft 254 kts 266°
2026-04-26 15:48 51.64518 -0.10052 11515 ft 252 kts 266°
2026-04-26 15:48 51.64412 -0.12859 11022 ft 250 kts 266°
2026-04-26 15:49 51.64304 -0.15645 10550 ft 248 kts 266°
2026-04-26 15:49 51.64193 -0.18417 10062 ft 247 kts 266°
2026-04-26 15:49 51.64081 -0.21172 9497 ft 246 kts 266°
2026-04-26 15:49 51.63968 -0.23913 8943 ft 245 kts 266°
2026-04-26 15:50 51.63859 -0.26635 8483 ft 243 kts 266°
2026-04-26 15:50 51.63753 -0.29343 7947 ft 242 kts 266°
2026-04-26 15:50 51.63646 -0.32015 7493 ft 241 kts 266°
2026-04-26 15:50 51.63573 -0.33836 7345 ft 243 kts 266°
2026-04-26 15:51 51.63461 -0.36565 7291 ft 244 kts 266°
2026-04-26 15:51 51.63350 -0.39291 7291 ft 243 kts 266°
2026-04-26 15:51 51.63240 -0.42003 7291 ft 243 kts 266°
2026-04-26 15:51 51.63096 -0.45591 7293 ft 242 kts 266°
2026-04-26 15:52 51.63023 -0.47423 7295 ft 242 kts 266°
2026-04-26 15:52 51.62915 -0.50130 7292 ft 243 kts 265°
2026-04-26 15:52 51.62807 -0.52843 7294 ft 242 kts 265°
2026-04-26 15:52 51.62736 -0.54640 7169 ft 244 kts 265°
2026-04-26 15:53 51.62592 -0.58283 6787 ft 243 kts 265°
2026-04-26 15:53 51.62486 -0.60954 6644 ft 235 kts 266°
2026-04-26 15:53 51.62385 -0.63492 6530 ft 226 kts 265°
2026-04-26 15:53 51.62287 -0.65989 6329 ft 221 kts 265°
2026-04-26 15:54 51.62192 -0.68445 6082 ft 220 kts 265°
2026-04-26 15:54 51.62100 -0.70897 5812 ft 219 kts 265°
2026-04-26 15:54 51.62008 -0.73343 5545 ft 218 kts 265°
2026-04-26 15:54 51.61920 -0.75766 5257 ft 217 kts 265°
2026-04-26 15:55 51.61833 -0.78193 5031 ft 217 kts 266°
2026-04-26 15:55 51.61748 -0.80612 4837 ft 214 kts 265°
2026-04-26 15:55 51.61574 -0.82950 4650 ft 208 kts 251°
2026-04-26 15:55 51.60775 -0.84814 4487 ft 202 kts 216°
2026-04-26 15:56 51.59512 -0.85631 4295 ft 198 kts 187°
2026-04-26 15:56 51.58149 -0.85817 4102 ft 196 kts 181°
2026-04-26 15:56 51.56781 -0.85892 3877 ft 197 kts 181°
2026-04-26 15:56 51.55411 -0.85953 3669 ft 196 kts 180°
2026-04-26 15:57 51.54039 -0.86014 3457 ft 197 kts 180°
2026-04-26 15:57 51.52676 -0.85919 3235 ft 196 kts 168°
2026-04-26 15:57 51.51429 -0.85093 2990 ft 197 kts 143°
2026-04-26 15:57 51.50790 -0.84044 2954 ft 201 kts 126°
2026-04-26 15:58 51.49819 -0.81544 2935 ft 203 kts 118°
2026-04-26 15:58 51.49124 -0.79500 2966 ft 204 kts 122°
2026-04-26 15:58 51.48324 -0.77626 2961 ft 204 kts 125°
2026-04-26 15:58 51.47756 -0.75600 2962 ft 193 kts 101°
2026-04-26 15:59 51.47669 -0.73518 2966 ft 184 kts 90°
2026-04-26 15:59 51.47679 -0.71484 2955 ft 185 kts 90°
2026-04-26 15:59 51.47677 -0.69425 2726 ft 185 kts 90°
2026-04-26 15:59 51.47682 -0.67352 2459 ft 185 kts 90°
2026-04-26 16:00 51.47688 -0.65278 2201 ft 187 kts 90°
2026-04-26 16:00 51.47696 -0.63173 1931 ft 189 kts 90°
2026-04-26 16:00 51.47703 -0.61122 1717 ft 180 kts 90°
2026-04-26 16:00 51.47709 -0.59165 1459 ft 170 kts 90°
2026-04-26 16:01 51.47717 -0.57333 1234 ft 160 kts 90°
2026-04-26 16:01 51.47722 -0.55607 1024 ft 149 kts 90°
2026-04-26 16:01 51.47727 -0.54002 806 ft 139 kts 90°
2026-04-26 16:01 51.47732 -0.52511 625 ft 128 kts 89°
2026-04-26 16:02 51.47745 -0.51079 453 ft 128 kts 89°
2026-04-26 16:02 51.47749 -0.49640 269 ft 130 kts 88°
2026-04-26 16:02 51.47753 -0.48194 115 ft 129 kts 88°
2026-04-26 16:02 51.47755 -0.47283 95 ft 112 kts 90°
2026-04-26 16:03 51.47758 -0.46058 95 ft 52 kts 90°
2026-04-26 16:03 51.47760 -0.45638 94 ft 24 kts 89°
2026-04-26 16:03 51.47716 -0.45479 95 ft 15 kts 158°
2026-04-26 16:03 51.47615 -0.45441 97 ft 15 kts 140°
2026-04-26 16:04 51.47596 -0.45285 95 ft 15 kts 89°
2026-04-26 16:04 51.47597 -0.45107 93 ft 17 kts 89°
2026-04-26 16:04 51.47598 -0.44899 93 ft 20 kts 89°
2026-04-26 16:04 51.47598 -0.44666 93 ft 22 kts 90°
2026-04-26 16:05 51.47599 -0.44410 93 ft 24 kts 90°
2026-04-26 16:05 51.47591 -0.44171 93 ft 11 kts 90°
2026-04-26 16:05 51.47564 -0.44075 95 ft 11 kts 151°
2026-04-26 16:05 51.47476 -0.44063 97 ft 14 kts 179°
2026-04-26 16:06 51.47365 -0.44062 97 ft 17 kts 180°
2026-04-26 16:06 51.47253 -0.44061 97 ft 14 kts 179°
2026-04-26 16:06 51.47158 -0.44060 97 ft 13 kts 179°
2026-04-26 16:06 51.47106 -0.44073 96 ft 6 kts 224°
2026-04-26 16:07 51.47098 -0.44143 96 ft 7 kts 270°
2026-04-26 16:07 51.47098 -0.44213 93 ft 5 kts 270°
2026-04-26 16:07 51.47098 -0.44218 93 ft 0 kts 270°